Location: Winthrop
(48.4780°N, 120.1850°W)
Time: 17:48:39
(UTC-07:00)

CAS-4A - Visible Passes

Search period start: 21 May 2022 00:00
Search period end: 31 May 2022 00:00
Orbit: 525 x 536 km, 43.0° (Epoch: 21 May)

Date Brightness Start Highest point End Pass type
(mag) Time Alt. Az. Time Alt. Az. Time Alt. Az.
21 May ? 21:22:06 10° SW 21:25:40 30° SSE 21:29:13 10° ESE visible
21 May ? 23:01:27 10° WSW 23:05:13 37° S 23:05:40 36° SSE visible
22 May ? 22:49:10 10° WSW 22:52:54 36° S 22:53:54 31° SSE visible
23 May ? 22:36:53 10° WSW 22:40:35 35° S 22:42:01 26° SSE visible
24 May ? 00:17:11 10° WSW 00:17:13 10° WSW 00:17:13 10° WSW visible
24 May ? 22:24:35 10° WSW 22:28:15 33° S 22:30:06 22° SE visible
25 May ? 00:05:07 10° WSW 00:05:18 11° WSW 00:05:18 11° WSW visible
25 May ? 22:12:18 10° WSW 22:15:54 31° SSW 22:18:08 18° SE visible
25 May ? 23:53:09 10° WSW 23:53:21 11° WSW 23:53:21 11° WSW visible
26 May ? 22:00:01 10° WSW 22:03:33 29° SSW 22:06:10 15° SE visible
27 May ? 21:47:45 10° WSW 21:51:10 26° SSW 21:54:12 12° SE visible
28 May ? 21:35:29 10° WSW 21:38:46 24° SSW 21:42:03 10° SE visible
